Time,TemperatureF,DewpointF,PressureIn,WindDirection,WindDirectionDegrees,WindSpeedMPH,WindSpeedGustMPH,Humidity,HourlyPrecipIn,Conditions,Clouds,dailyrainin,SoftwareType,DateUTC
2013-02-27 00:01:00,55.0,17.0,30.12,NNE,12,0.0,5.0,22,0.00,,,0.00,,2013-02-27 08:01:00,
2013-02-27 00:21:00,56.0,17.0,30.12,NNE,14,0.0,6.0,21,0.00,,,0.00,,2013-02-27 08:21:00,
2013-02-27 00:31:00,53.0,18.0,30.12,ENE,64,2.0,6.0,25,0.00,,,0.00,,2013-02-27 08:31:00,
2013-02-27 00:41:00,53.0,18.0,30.12,ENE,64,2.0,6.0,25,0.00,,,0.00,,2013-02-27 08:41:00,
2013-02-27 00:52:00,54.0,17.0,30.12,North,5,0.0,4.0,23,0.00,,,0.00,,2013-02-27 08:52:00,
2013-02-27 01:01:00,54.0,17.0,30.13,North,5,1.0,5.0,23,0.00,,,0.00,,2013-02-27 09:01:00,
2013-02-27 01:21:00,54.0,16.0,30.13,NNE,29,1.0,6.0,22,0.00,,,0.00,,2013-02-27 09:21:00,
2013-02-27 01:31:00,54.0,17.0,30.13,ENE,60,3.0,6.0,23,0.00,,,0.00,,2013-02-27 09:31:00,
2013-02-27 01:41:00,54.0,17.0,30.13,ENE,60,3.0,6.0,23,0.00,,,0.00,,2013-02-27 09:41:00,
2013-02-27 01:51:00,54.0,16.0,30.13,NE,51,2.0,5.0,22,0.00,,,0.00,,2013-02-27 09:51:00,
2013-02-27 02:01:00,55.0,16.0,30.14,NNW,343,1.0,3.0,21,0.00,,,0.00,,2013-02-27 10:01:00,
2013-02-27 02:21:00,53.0,18.0,30.13,NE,49,5.0,6.0,25,0.00,,,0.00,,2013-02-27 10:21:00,
2013-02-27 02:31:00,52.0,16.0,30.14,NE,49,0.0,4.0,24,0.00,,,0.00,,2013-02-27 10:31:00,
2013-02-27 02:41:00,52.0,16.0,30.14,NE,49,0.0,4.0,24,0.00,,,0.00,,2013-02-27 10:41:00,
2013-02-27 02:52:00,52.0,16.0,30.14,NE,42,4.0,7.0,24,0.00,,,0.00,,2013-02-27 10:52:00,
2013-02-27 03:01:00,54.0,16.0,30.14,NNE,13,0.0,4.0,22,0.00,,,0.00,,2013-02-27 11:01:00,
2013-02-27 03:22:00,53.0,15.0,30.14,NE,52,2.0,6.0,22,0.00,,,0.00,,2013-02-27 11:22:00,
2013-02-27 03:31:00,53.0,15.0,30.14,NE,44,1.0,5.0,22,0.00,,,0.00,,2013-02-27 11:31:00,
2013-02-27 03:41:00,53.0,15.0,30.14,NE,44,1.0,5.0,22,0.00,,,0.00,,2013-02-27 11:41:00,
2013-02-27 03:52:00,53.0,15.0,30.14,NE,44,1.0,5.0,22,0.00,,,0.00,,2013-02-27 11:52:00,
2013-02-27 04:01:00,53.0,15.0,30.14,NE,44,1.0,5.0,22,0.00,,,0.00,,2013-02-27 12:01:00,
2013-02-27 04:12:00,53.0,15.0,30.14,NE,44,1.0,5.0,22,0.00,,,0.00,,2013-02-27 12:12:00,
2013-02-27 15:01:00,71.0,24.0,30.18,SW,229,1.0,8.0,17,0.00,,,0.00,,2013-02-27 23:01:00,
2013-02-27 15:11:00,71.0,24.0,30.18,SW,229,1.0,8.0,17,0.00,,,0.00,,2013-02-27 23:11:00,
2013-02-27 15:21:00,70.0,26.0,30.19,WSW,257,2.0,11.0,19,0.00,,,0.00,,2013-02-27 23:21:00,
2013-02-27 15:31:00,70.0,26.0,30.19,WSW,250,4.0,9.0,19,0.00,,,0.00,,2013-02-27 23:31:00,
2013-02-27 15:42:00,70.0,26.0,30.19,WSW,250,4.0,9.0,19,0.00,,,0.00,,2013-02-27 23:42:00,
2013-02-27 15:52:00,69.0,25.0,30.19,SW,225,5.0,12.0,19,0.00,,,0.00,,2013-02-27 23:52:00,
2013-02-27 16:01:00,69.0,25.0,30.19,SW,235,0.0,11.0,19,0.00,,,0.00,,2013-02-28 00:01:00,
2013-02-27 16:11:00,69.0,25.0,30.19,SW,235,0.0,11.0,19,0.00,,,0.00,,2013-02-28 00:11:00,
2013-02-27 16:21:00,69.0,24.0,30.19,West,260,0.0,7.0,18,0.00,,,0.00,,2013-02-28 00:21:00,
2013-02-27 16:31:00,69.0,25.0,30.19,SSW,200,4.0,9.0,19,0.00,,,0.00,,2013-02-28 00:31:00,
2013-02-27 16:42:00,69.0,25.0,30.19,SSW,200,4.0,9.0,19,0.00,,,0.00,,2013-02-28 00:42:00,
2013-02-27 16:52:00,68.0,27.0,30.20,WSW,252,0.0,6.0,21,0.00,,,0.00,,2013-02-28 00:52:00,
2013-02-27 17:01:00,67.0,26.0,30.20,West,274,4.0,10.0,21,0.00,,,0.00,,2013-02-28 01:01:00,
2013-02-27 17:11:00,67.0,26.0,30.20,West,274,4.0,10.0,21,0.00,,,0.00,,2013-02-28 01:11:00,
2013-02-27 17:21:00,66.0,26.0,30.20,SW,223,0.0,3.0,22,0.00,,,0.00,,2013-02-28 01:21:00,
2013-02-27 17:31:00,64.0,24.0,30.20,SW,217,0.0,2.0,22,0.00,,,0.00,,2013-02-28 01:31:00,
2013-02-27 17:41:00,64.0,24.0,30.20,SW,217,0.0,2.0,22,0.00,,,0.00,,2013-02-28 01:41:00,
2013-02-27 17:52:00,62.0,24.0,30.20,SW,216,0.0,1.0,23,0.00,,,0.00,,2013-02-28 01:52:00,
2013-02-27 18:01:00,61.0,25.0,30.21,SW,216,0.0,0.0,25,0.00,,,0.00,,2013-02-28 02:01:00,
2013-02-27 18:11:00,61.0,25.0,30.21,SW,216,0.0,0.0,25,0.00,,,0.00,,2013-02-28 02:11:00,
2013-02-27 18:21:00,60.0,23.0,30.21,SW,215,0.0,0.0,24,0.00,,,0.00,,2013-02-28 02:21:00,
2013-02-27 18:31:00,59.0,23.0,30.21,SW,216,0.0,1.0,25,0.00,,,0.00,,2013-02-28 02:31:00,
2013-02-27 18:41:00,59.0,23.0,30.21,SW,216,0.0,1.0,25,0.00,,,0.00,,2013-02-28 02:41:00,
2013-02-27 18:52:00,59.0,23.0,30.21,SW,216,0.0,1.0,25,0.00,,,0.00,,2013-02-28 02:52:00,
2013-02-27 19:01:00,58.0,23.0,30.22,ENE,68,3.0,4.0,26,0.00,,,0.00,,2013-02-28 03:01:00,
2013-02-27 19:11:00,58.0,23.0,30.22,ENE,68,3.0,4.0,26,0.00,,,0.00,,2013-02-28 03:11:00,
2013-02-27 19:21:00,57.0,24.0,30.22,ENE,64,0.0,0.0,28,0.00,,,0.00,,2013-02-28 03:21:00,
2013-02-27 19:31:00,56.0,25.0,30.23,ENE,64,0.0,0.0,30,0.00,,,0.00,,2013-02-28 03:31:00,
2013-02-27 19:41:00,56.0,25.0,30.23,ENE,64,0.0,0.0,30,0.00,,,0.00,,2013-02-28 03:41:00,
2013-02-27 19:52:00,55.0,26.0,30.24,ENE,64,0.0,1.0,32,0.00,,,0.00,,2013-02-28 03:52:00,
2013-02-27 20:01:00,56.0,26.0,30.24,ENE,57,2.0,4.0,31,0.00,,,0.00,,2013-02-28 04:01:00,
2013-02-27 20:11:00,56.0,26.0,30.24,ENE,57,2.0,4.0,31,0.00,,,0.00,,2013-02-28 04:11:00,
2013-02-27 20:21:00,57.0,25.0,30.24,ENE,57,3.0,4.0,29,0.00,,,0.00,,2013-02-28 04:21:00,
2013-02-27 20:31:00,56.0,25.0,30.24,NW,309,1.0,4.0,30,0.00,,,0.00,,2013-02-28 04:31:00,
2013-02-27 20:41:00,56.0,25.0,30.24,NW,309,1.0,4.0,30,0.00,,,0.00,,2013-02-28 04:41:00,
2013-02-27 20:52:00,56.0,25.0,30.25,NNE,25,0.0,3.0,30,0.00,,,0.00,,2013-02-28 04:52:00,
2013-02-27 21:01:00,54.0,25.0,30.25,NE,45,3.0,5.0,32,0.00,,,0.00,,2013-02-28 05:01:00,
2013-02-27 21:11:00,54.0,25.0,30.25,NE,45,3.0,5.0,32,0.00,,,0.00,,2013-02-28 05:11:00,
2013-02-27 21:22:00,56.0,26.0,30.26,NE,36,0.0,1.0,31,0.00,,,0.00,,2013-02-28 05:22:00,
2013-02-27 21:31:00,53.0,25.0,30.26,NE,37,2.0,4.0,34,0.00,,,0.00,,2013-02-28 05:31:00,
2013-02-27 21:42:00,53.0,25.0,30.26,NE,37,2.0,4.0,34,0.00,,,0.00,,2013-02-28 05:42:00,
2013-02-27 21:52:00,53.0,23.0,30.27,North,355,0.0,6.0,31,0.00,,,0.00,,2013-02-28 05:52:00,
2013-02-27 22:01:00,53.0,23.0,30.27,North,355,1.0,3.0,31,0.00,,,0.00,,2013-02-28 06:01:00,
2013-02-27 22:11:00,53.0,23.0,30.27,North,355,1.0,3.0,31,0.00,,,0.00,,2013-02-28 06:11:00,
2013-02-27 22:21:00,55.0,22.0,30.27,North,355,0.0,4.0,27,0.00,,,0.00,,2013-02-28 06:21:00,
2013-02-27 22:32:00,55.0,21.0,30.27,North,350,0.0,5.0,26,0.00,,,0.00,,2013-02-28 06:32:00,
2013-02-27 22:41:00,55.0,21.0,30.27,North,350,0.0,5.0,26,0.00,,,0.00,,2013-02-28 06:41:00,
2013-02-27 22:52:00,53.0,22.0,30.28,North,350,0.0,0.0,29,0.00,,,0.00,,2013-02-28 06:52:00,
2013-02-27 23:01:00,52.0,22.0,30.28,North,350,0.0,0.0,30,0.00,,,0.00,,2013-02-28 07:01:00,
2013-02-27 23:11:00,52.0,22.0,30.28,North,350,0.0,0.0,30,0.00,,,0.00,,2013-02-28 07:11:00,
2013-02-27 23:21:00,53.0,21.0,30.28,North,355,0.0,6.0,28,0.00,,,0.00,,2013-02-28 07:21:00,
2013-02-27 23:31:00,51.0,22.0,30.28,NNE,32,3.0,4.0,32,0.00,,,0.00,,2013-02-28 07:31:00,
2013-02-27 23:41:00,51.0,22.0,30.28,NNE,32,3.0,4.0,32,0.00,,,0.00,,2013-02-28 07:41:00,
2013-02-27 23:52:00,53.0,21.0,30.28,NNE,32,0.0,3.0,28,0.00,,,0.00,,2013-02-28 07:52:00,